EW9355 Weather Reports


Display with metric or nautical units.
time (UTC)temp
F
wind
direction
speed
MPH
gust
MPH
rain 1hr
in
rain 24hr
in
rain mn
in
humidity
%
barometer
mb
20260506160043 55 108 0.0 1.0 0.24 0.24 0.24 89 1011.8
20260506154533 54 132 0.0 2.0 0.24 0.24 0.24 88 1011.1
20260506153032 55 296 0.0 1.0 0.23 0.23 0.23 86 1012.9
20260506151535 55 14 0.0 1.0 0.00 0.00 0.00 85 1012.9
20260506150032 55 355 0.0 8.0 0.00 0.00 0.00 84 1012.8
20260506144528 55 55 0.0 2.0 0.00 0.00 0.00 82 1011.4
20260506143038 55 108 0.0 8.0 0.00 0.00 0.00 82 1012.2
20260506141522 55 33 0.0 2.0 0.00 0.00 0.00 83 1011.7
20260506140023 55 346 0.0 2.0 0.00 0.00 0.00 82 1011.6
20260506134520 55 219 0.0 2.0 0.00 0.00 0.00 82 1011.0
20260506133023 55 14 0.0 2.0 0.00 0.00 0.00 81 1011.0
20260506131519 55 344 0.0 2.0 0.00 0.00 0.00 81 1010.5
20260506130014 55 43 0.0 11.0 0.00 0.00 0.00 81 1010.5
20260506124513 55 5 0.0 2.0 0.00 0.00 0.00 80 1010.5
20260506123012 55 121 0.0 2.0 0.00 0.00 0.00 80 1010.2
20260506121509 56 360 1.0 12.0 0.00 0.00 0.00 78 1010.0
20260506120006 56 5 0.0 8.0 0.00 0.00 0.00 77 1010.0
20260506114505 56 29 0.0 10.0 0.00 0.00 0.00 77 1009.6
20260506113002 57 80 0.0 3.0 0.00 0.00 0.00 77 1009.1
20260506111559 57 5 0.0 4.0 0.00 0.00 0.00 75 1009.2
20260506104613 58 46 0.0 3.0 0.00 0.00 0.00 75 1008.4
20260506103053 59 355 0.0 2.0 0.00 0.00 0.00 76 1008.3
20260506101556 59 24 0.0 1.0 0.00 0.00 0.00 74 1007.9
20260506100046 59 348 0.0 2.0 0.00 0.00 0.00 74 1007.5
20260506094552 59 350 0.0 2.0 0.00 0.00 0.00 73 1007.5
20260506093047 59 86 0.0 2.0 0.00 0.00 0.00 74 1007.4
20260506091542 59 24 0.0 1.0 0.00 0.00 0.00 74 1007.3
20260506090043 60 351 0.0 3.0 0.00 0.00 0.00 75 1007.2
20260506084538 60 342 0.0 2.0 0.00 0.00 0.00 75 1006.9
20260506083036 60 71 0.0 1.0 0.00 0.00 0.00 75 1007.0
20260506081536 60 63 0.0 1.0 0.00 0.00 0.00 75 1006.6
20260506071532 61 78 0.0 2.0 0.00 0.00 0.00 74 1006.8
20260506061526 63 70 0.0 1.0 0.00 0.00 0.00 75 1006.7
20260506044511 66 13 0.0 4.0 0.00 0.00 0.00 74 1006.3
20260506043007 67 355 0.0 2.0 0.00 0.00 0.00 74 1006.2
20260506041506 68 84 0.0 9.0 0.00 0.00 0.00 73 1005.9
20260506040100 69 5 0.0 4.0 0.00 0.00 0.00 73 1005.4
20260506034559 70 355 0.0 4.0 0.00 0.00 0.00 72 1005.5
20260506033110 71 360 0.0 5.0 0.00 0.00 0.00 72 1005.1
20260506031556 71 61 0.0 3.0 0.00 0.00 0.00 71 1005.1
20260506030050 72 349 0.0 5.0 0.00 0.00 0.00 71 1005.0
20260506024548 74 299 1.0 6.0 0.00 0.00 0.00 69 1004.3
20260506023046 74 350 0.0 3.0 0.00 0.00 0.00 67 1003.9
20260506021545 75 76 0.0 2.0 0.00 0.00 0.00 66 1003.4
20260506020043 75 23 0.0 1.0 0.00 0.00 0.00 65 1003.3
20260506014550 76 47 0.0 5.0 0.00 0.00 0.00 66 1003.2
20260506013042 76 85 0.0 3.0 0.00 0.00 0.00 65 1002.6
20260506011543 77 25 2.0 5.0 0.00 0.00 0.00 64 1003.1
20260506010041 79 349 0.0 4.0 0.00 0.00 0.00 62 1002.2
20260506004543 80 73 0.0 2.0 0.00 0.00 0.00 61 1002.1
20260506003040 81 79 0.0 4.0 0.00 0.00 0.00 60 1002.1
20260506001553 83 323 1.0 5.0 0.00 0.00 0.00 58 1002.2
20260506000045 85 329 0.0 2.0 0.00 0.00 0.00 55 1001.8
20260505234547 86 348 2.0 6.0 0.00 0.00 0.00 52 1001.3
20260505233038 87 239 0.0 4.0 0.00 0.00 0.00 56 1001.2
20260505231547 88 144 0.0 5.0 0.00 0.00 0.00 63 1000.7
20260505230039 89 114 1.0 7.0 0.00 0.00 0.00 61 1000.5
20260505224539 91 243 2.0 5.0 0.00 0.00 0.00 53 1000.4
20260505223041 91 272 1.0 6.0 0.00 0.00 0.00 52 1000.4
20260505221533 91 188 0.0 8.0 0.00 0.00 0.00 50 1000.4
20260505220039 92 275 0.0 8.0 0.00 0.00 0.00 51 1000.4
20260505214547 92 242 0.0 4.0 0.00 0.00 0.00 52 1000.5
20260505213040 91 254 1.0 9.0 0.00 0.00 0.00 52 1000.7
20260505211524 91 237 3.0 12.0 0.00 0.00 0.00 53 1000.9
20260505210023 90 254 2.0 9.0 0.00 0.00 0.00 55 1000.9
20260505204527 90 248 2.0 11.0 0.00 0.00 0.00 53 1001.2
20260505203019 90 144 1.0 10.0 0.00 0.00 0.00 55 1001.2
20260505201517 89 242 4.0 11.0 0.00 0.00 0.00 56 1001.4
20260505200012 89 254 2.0 13.0 0.00 0.00 0.00 58 1001.5
20260505194510 88 261 2.0 9.0 0.00 0.00 0.00 59 1001.7
20260505193019 87 161 1.0 8.0 0.00 0.00 0.00 61 1001.7
20260505191502 86 229 1.0 8.0 0.00 0.00 0.00 64 1001.7
20260505190119 85 157 1.0 8.0 0.00 0.00 0.00 64 1001.8
20260505184607 84 248 1.0 8.0 0.00 0.00 0.00 67 1002.0
20260505183055 84 242 0.0 10.0 0.00 0.00 0.00 66 1002.1
20260505181552 83 255 1.0 4.0 0.00 0.00 0.00 66 1002.2
20260505180051 83 79 1.0 8.0 0.00 0.00 0.00 68 1002.2
20260505174548 83 178 1.0 8.0 0.00 0.00 0.00 67 1002.3
20260505173046 82 236 1.0 8.0 0.00 0.00 0.00 68 1002.2
20260505171543 81 239 0.0 7.0 0.00 0.00 0.00 71 1002.2
20260505170039 80 244 1.0 7.0 0.00 0.00 0.00 71 1002.3
20260505164539 80 268 0.0 4.0 0.00 0.00 0.00 71 1002.3
20260505163036 80 279 0.0 8.0 0.00 0.00 0.00 72 1002.3
20260505161535 79 271 2.0 13.0 0.00 0.00 0.00 72 1002.2